Location: Vinland
(47.7731°N, 122.6974°W)
Time: 18:14:47
(UTC+00:00)

Vanguard 2 - Pass Details

Date: 23 April 2024
Orbit: 553 x 2914 km, 32.9° (Epoch: 22 May)

Event Time Altitude Azimuth Distance (km) Brightness Sun altitude
Exits shadow 11:59:40 10° 253° (WSW) 5,374 11.2 -10.8°
Reaches altitude 10° 11:59:44 10° 253° (WSW) 5,360 11.2 -10.7°
Maximum altitude 12:15:14 47° 188° (S) 3,565 10.6 -8.5°
Drops below altitude 10° 12:30:41 10° 122° (ESE) 5,336 12.3 -6.2°
Sets 12:34:39 0° 117° (ESE) 6,124 12.7 -5.6°
